www.pogodaiklimat.ru

Погода и климат >> Архив погоды >> Россия >> город Москва >> Москва


АРХИВ ПОГОДЫ в Москве

Время (UTC), дата Ветер
(напр.,м/с)
 
Видим.   Явления Облачность Т
(С)
Тd
(С)
f
(%)
Тe
(С)
Тes
(С)
Комфортность P
(гПа)
Po
(гПа)
Тmin
(С)
Tmax
(С)
R
(мм)
R24
(мм)
S
(см)
21 8.02 ЮЗ 1 н/о 8/8 600 м
[Sc]
-0.8 -5.2 72 -3 -3 тепло 1020.7 1000.7
00 9.02 ЮЗ 1 н/о 10/10 600 м
[Sc]
-1.5 -5.2 76 -3 -3 тепло 1020.8 1000.8
03 9.02 ЮЗ 1 н/о 10/10 600 м
[Sc]
-2.5 -5.4 80 -5 -5 тепло 1020.4 1000.3 -2.5
06 9.02 ЮЗ 1 4000 м в посл. час снег 10/10 300 м
[Frnb]
-2.7 -4.4 88 -5 -5 тепло 1020.5 1000.4 -2.9 0.2 31
09 9.02 ЮЗ 1 10 км 10/10 600 м
[Sc]
-1.4 -4.4 80 -3 -3 тепло 1020.4 1000.4
12 9.02 З 1 10 км 10/10 600 м
[Sc]
-1.0 -3.7 82 -3 -3 по сезону 1020.0 1000.0
15 9.02 ЮЗ 1 н/о 10/10 600 м
[Sc]
-1.3 -3.7 84 -3 -3 тепло 1020.1 1000.1 0.2
18 9.02 З 1 н/о дымка 10/10 600 м
[Sc]
-1.7 -3.6 87 -4 -4 тепло 1020.0 1000.0 -0.7
21 9.02 Ю 1 н/о дымка 10/10 600 м
[Sc]
-1.2 -3.2 86 -3 -3 тепло 1019.4 999.4
00 10.02 Ю 1 н/о дымка 10/10 600 м
[Sc]
-1.8 -4.1 84 -4 -4 тепло 1018.9 998.8
03 10.02 Ю 2 н/о 10/10 600 м
[Sc]
-2.4 -5.3 80 -6 -6 тепло 1017.6 997.6 -2.4
06 10.02 ЮЗ 1 10 км 10/10 600 м
[Sc]
-4.5 -7.7 78 -7 -7 по сезону 1017.8 997.6 -4.5 31
09 10.02 Ю 1 10 км 10/10 300 м
[Sc]
-4.7 -8.0 78 -7 -7 по сезону 1017.5 997.3
12 10.02 Ю 1 10 км 10/10 600 м
[Sc]
-4.4 -8.1 75 -7 -7 по сезону 1016.9 996.7
15 10.02 Ю 1 н/о 10/10 600 м
[Sc]
-4.6 -7.4 81 -7 -7 по сезону 1016.5 996.3
18 10.02 Ю 1 н/о 10/10 600 м
[Sc]
-4.3 -7.4 79 -7 -7 по сезону 1015.9 995.7 -4.3
21 10.02 Ю 1 н/о слаб. снег 10/10 600 м
[Sc]
-3.9 -6.5 82 -6 -6 по сезону 1015.5 995.4
00 11.02 ЮЗ 1 н/о дымка {снег} 10/10 300 м
[Frnb]
-3.6 -5.2 89 -6 -6 по сезону 1015.6 995.5
03 11.02 штиль 0 н/о дымка 10/10 300 м
[Frnb]
-2.9 -4.7 87 -4 -4 тепло 1015.8 995.7 -4.4 0.2
06 11.02 Ю 1 4000 м дымка 10/10 200 м
[Frnb]
-2.2 -3.5 91 -5 -5 тепло 1016.0 996.0 -4.4 0.2 31
09 11.02 Ю 1 4000 м дымка 10/10 200 м
[St]
-1.5 -2.6 92 -4 -4 по сезону 1016.3 996.4
12 11.02 Ю 2 н/о дымка 10/10 100 м
[St]
-0.6 -2.0 90 -4 -4 по сезону 1015.6 995.7
15 11.02 Ю 3 н/о дымка 10/10 100 м
[St]
-0.3 -2.4 86 -5 -5 по сезону 1015.5 995.6
18 11.02 Ю 3 н/о дымка 10/10 200 м
[St]
-0.2 -2.7 83 -5 -5 по сезону 1014.4 994.6 -0.2
21 11.02 Ю 2
{10}
н/о н/о -0.3 -3.1 81 -4 -4 тепло 1013.4 993.6
00 12.02 Ю 3
{10}
н/о н/о -0.8 -3.1 84 -6 -6 по сезону 1012.6 992.8
03 12.02 Ю 2 н/о 10/10 100 м
[St]
-0.4 -2.9 83 -4 -4 тепло 1011.8 992.0 -0.8
06 12.02 Ю 3 4000 м дымка 10/10 300 м
[St]
-0.4 -2.9 83 -5 -5 тепло 1011.4 991.6 -0.8 30
09 12.02 Ю 2 4000 м слаб. снег 10/10 300 м
[Frnb Ns]
+0.1 -1.9 86 -4 -4 по сезону 1011.1 991.3
12 12.02 Ю 2 4000 м слаб. снег 10/10 300 м
[Frnb]
+1.1 -0.7 88 -2 -2 тепло 1010.3 990.7
15 12.02 Ю 2 н/о в посл. час снег 10/10 300 м
[Frnb]
+2.0 0.0 87 -1 -1 тепло 1010.6 991.0 0.5
18 12.02 Ю 1 н/о слаб. дождь 10/10 300 м
[Frnb Ns]
+1.3 +0.4 94 -1 -1 тепло 1011.2 991.6 +2.0 2
21 12.02 Ю 1 н/о слаб. дождь 10/10 300 м
[Frnb Ns]
+1.1 +0.4 95 -1 -1 тепло 1011.9 992.2
00 13.02 штиль 0 н/о слаб. дождь 10/10 300 м
[Frnb Ns]
+1.0 +0.3 95 -0 -0 тепло 1010.8 991.2
03 13.02 штиль 0 н/о слаб. снег {дождь} 10/10 300 м
[Frnb Ns]
+0.2 -0.2 97 -1 -1 тепло 1008.9 989.3 +0.2 5
06 13.02 штиль 0 1000 м снег [диам. отлож. мокр. снега 15 мм] 10/10 200 м
[Frnb Ns]
-1.7 -1.9 99 -3 -3 тепло 1007.1 987.4 -1.7 11 36
09 13.02 штиль 0 4000 м слаб. снег [диам. отлож. мокр. снега 15 мм] 10/10 300 м
[Frnb Ns]
-0.9 -1.5 96 -2 -2 тепло 1006.1 986.4
12 13.02 СЗ 2 1000 м снег [диам. отлож. мокр. снега 0 мм] 10/10 300 м
[Frnb Ns]
-0.1 -1.1 93 -4 -4 по сезону 1006.7 987.1
15 13.02 СЗ 2 4000 м слаб. снег 10/5 600 м
[Sc As op]
-2.1 -3.7 89 -6 -6 по сезону 1010.7 990.9 10
18 13.02 СЗ 1 н/о {снег} 9/9 600 м
[Sc]
-3.1 -5.8 82 -5 -5 по сезону 1013.9 993.9 +0.5 3
21 13.02 З 1 н/о 10/10 600 м
[Sc]
-3.6 -6.2 82 -6 -6 по сезону 1016.4 996.3
00 14.02 СЗ 1 н/о 10/10 600 м
[Sc]
-4.4 -7.5 79 -7 -7 по сезону 1018.6 998.4
03 14.02 штиль 0 н/о дымка 9/0
[Ac trans]
-7.7 -8.8 92 -8 -8 по сезону 1020.7 1000.2 -7.7 0.0
06 14.02 штиль 0 4000 м дымка 9/3 1000 м
[Sc Ac trans]
-6.9 -7.6 95 -8 -8 по сезону 1022.1 1001.7 -8.1 38
09 14.02 З 1 10 км 4/0
[Ci fib]
-1.9 -7.1 68 -4 -1 по сезону 1023.5 1003.4
12 14.02 штиль 0 10 км 9/9 1000 м
[Sc]
-0.6 -5.0 72 -1 -1 тепло 1024.4 1004.4
15 14.02 З 1 н/о 10/10 1000 м
[Sc]
-1.3 -4.2 81 -3 -3 по сезону 1024.6 1004.6
18 14.02 З 1 н/о 9/6 1000 м
[Sc Ac trans]
-1.2 -3.8 82 -3 -3 тепло 1024.5 1004.4 -0.2
21 14.02 З 2 н/о дымка 10/10 600 м
[Sc]
-1.7 -3.2 89 -6 -6 по сезону 1024.2 1004.1
00 15.02 З 1 н/о дымка {снег} 10/10 200 м
[Frnb]
-1.3 -2.3 93 -4 -4 тепло 1022.7 1002.7
03 15.02 З 2-10
{10}
н/о дымка 10/10 600 м
[Sc]
-0.6 -2.5 87 -4 -4 тепло 1018.0 998.1 -1.8 0.0
06 15.02 З 2
{10}
10 км 10/10 300 м
[Frnb]
+0.2 -2.1 85 -3 -3 тепло 1014.9 995.1 -1.8 0.0 37
09 15.02 З 2 10 км в посл. час снег 10/10 600 м
[Sc]
+1.6 -0.8 84 -2 -2 тепло 1013.4 993.7
12 15.02 З 2 10 км {снег} 10/10 600 м
[Sc]
+2.3 -0.3 83 -1 -1 тепло 1012.3 992.8
15 15.02 СЗ 2
{11}
10 км 9/9 600 м
[Sc]
+2.9 -0.6 78 0 0 тепло 1012.1 992.6 0.0
18 15.02 З 1 н/о н/о +2.5 -0.1 83 +1 +1 тепло 1012.3 992.7 +3.0

 

Местоположение метеостанции Москва (город Москва, Россия): широта 55.83 долгота 37.62 высота над уровнем моря 156 м.

В архиве по умолчанию представлена погода в Москве за последнюю неделю. Архивные данные за месяц целиком и за предыдущие месяцы, начиная с января 2011 года, Вы можете получить, выбрав интересующий диапазон дат из раскрывающегося списка и нажав кнопку "Ввод!".


*Определитесь, кто Вы:
робот инопланетянин человек

Внимание! Время в таблицах - всемирное. Для получения местного времени необходимо прибавить поправку, которая равна 3 ч.

Смотрите также архив погоды в соседних городах и на ближайших метеорологических станциях:

Погода в Москве (Балчуг) (город Москва, Россия) (9 км)
Погода в Москве (Тушино) (город Москва, Россия) (12 км)
Погода в Долгопрудном (Московская область, Россия) (13 км)
Погода в Москве (Строгино) (город Москва, Россия) (14 км)
Погода в Красногорске (Московская область, Россия) (18 км)
Погода в Шереметьево (Московская область, Россия) (20 км)
Погода в Немчиновке (город Москва, Россия) (21 км)
Погода в Железнодорожном АМС (Московская область, Россия) (23 км)
Погода в Луговой (Московская область, Россия) (26 км)
Погода в Пушкино (Московская область, Россия) (26 км)

Пояснения к столбцам:

Ветер - указаны скорость ветра в м/с - средняя за 10 мин, порывы в срок и между сроками (в фигурных скобках) и направление, откуда дует ветер: С - северный, СВ - северо-восточный, В - восточный, ЮВ - юго-восточный, Ю - южный, ЮЗ - юго-западный, З - западный, СЗ - северо-западный.
Видимость - горизонтальная дальность видимости в метрах или километрах. При видимости от 1 до 10 км при отсутствии осадков обычно наблюдается дымка, при ухудшении видимости до 1 км и менее - туман. В сухую погоду видимость может ухудшаться дымом, пылью или мглою.
Явления - указаны атмосферные явления, наблюдавшиеся в срок или в последний час перед сроком; фигурными скобками обозначены явления, наблюдавшиеся между сроками (за 1-3 часа до срока); квадратными скобками обозначены град или гололедные отложения с указанием их диаметра в мм.
Облачность - указаны через наклонную черту общая и нижняя облачность в баллах и высота нижней границы облаков в метрах; квадратными скобками обозначены формы облаков: Ci - перистые, Cs - перисто-слоистые, Cc - перисто-кучевые, Ac - высококучевые, As - высокослоистые, Sc - слоисто-кучевые, Ns - слоисто-дождевые, Cu - кучевые, Cb - кучево-дождевые. Подробнее классификацию облаков см. в Атласе облаков (PDF).
T - Температура воздуха - температура, измеренная на высоте 2 м над землей.
Td - Температура точки росы - температура, при понижении до которой содержащийся в воздухе водяной пар достигнет насыщения.
f - Относительная влажность воздуха - влажноcть воздуха, измеренная на высоте 2 м над землей.
Te - Эффективная температура - температура, которую ощущает одетый по сезону человек в тени. Характеристика душности погоды. При расчете учитывается влияние влажности воздуха и скорости ветра на теплоощущения человека.
Tes - Эффективная температура на солнце - температура, которую ощущает человек, с поправкой на солнечный нагрев. Характеристика знойности погоды. Зависит от высоты солнца над горизонтом, облачности и скорости ветра. Ночью, в пасмурную погоду, а также при ветре 12 м/с и более поправка равна нулю.
P - Атмосферное давление - приведенное к уровню моря атмосферное давление.
Po - Атмосферное давление - измеренное на уровне метеостанции атмосферное давление.
Tmin - Минимальная температура - минимум температуры воздуха на высоте 2 м над землей.
Tmax - Максимальная температура - максимум температуры воздуха на высоте 2 м над землей.
R - Количество осадков - Количество выпавших осадков за период времени, мм. При наведении курсора мыши на число - период времени, за который выпало указанное количество осадков.
R24 - Количество осадков - Количество выпавших осадков за 24 часа, мм.
S - Снежный покров - Высота снежного покрова, см. При наведении курсора мыши на число - состояние снежного покрова и степень покрытия местности в баллах.